Location: Copeville
(33.0796°N, 96.4155°W)
Time: 08:49:59
(UTC+00:00)

SL-4 R/B - Visible Passes

Search period start: 25 June 2022 00:00
Search period end: 05 July 2022 00:00
Orbit: 426 x 654 km, 51.6° (Epoch: 24 June)

Date Brightness Start Highest point End Pass type
(mag) Time Alt. Az. Time Alt. Az. Time Alt. Az.
25 Jun 4.8 07:56:12 10° ENE 07:56:12 10° ENE 07:56:14 10° ENE visible
25 Jun 2.9 09:31:38 29° WNW 09:32:40 35° NW 09:36:18 10° NNE visible
26 Jun 4.8 07:47:45 11° ENE 07:47:45 11° ENE 07:47:55 10° ENE visible
26 Jun 3.3 09:23:11 24° WNW 09:24:06 27° NW 09:27:28 10° NNE visible
27 Jun 4.8 07:39:15 11° ENE 07:39:15 11° ENE 07:39:28 10° ENE visible
27 Jun 3.6 09:14:40 20° NW 09:15:32 21° NNW 09:18:35 10° NNE visible
28 Jun 4.9 07:30:41 11° NE 07:30:41 11° NE 07:30:54 10° NE visible
28 Jun 4.0 09:06:07 16° NW 09:07:01 17° NNW 09:09:37 10° NNE visible
29 Jun 4.9 07:22:05 11° NE 07:22:05 11° NE 07:22:16 10° NE visible
29 Jun 4.3 08:57:31 13° NW 08:58:30 14° NNW 09:00:35 10° N visible
30 Jun 5.0 07:13:26 11° NE 07:13:26 11° NE 07:13:35 10° NE visible
30 Jun 4.5 08:48:52 10° NW 08:50:01 11° NNW 08:51:20 10° N visible
01 Jul 5.1 07:04:45 11° NE 07:04:45 11° NE 07:04:51 10° NE visible
02 Jul 5.1 06:56:00 10° NNE 06:56:00 10° NNE 06:56:03 10° NNE visible
